AWC67 EGSS-EGNH

Flight info

Callsign AWC67
Flight time 0h 34m
Altitude 18000
Route UTAVA1S UTAVA Q75 BUZAD T420 TNT N57 POL DCT
Aircraft A21N/L-V/N

Departure

Time 2026-04-24 19:10
Airport London Stansted Airport (EGSS)

Arrival

Time 2026-04-24 19:45
Airport Blackpool Airport (EGNH)
Time Latitude Longitude Altitude Speed Heading
2026-04-24 19:02 51.88241 0.22536 339 ft 0 kts 313°
2026-04-24 19:03 51.88235 0.22547 334 ft 3 kts 313°
2026-04-24 19:03 51.88222 0.22569 334 ft 2 kts 313°
2026-04-24 19:03 51.88209 0.22591 335 ft 3 kts 295°
2026-04-24 19:04 51.88209 0.22620 337 ft 3 kts 232°
2026-04-24 19:04 51.88211 0.22624 334 ft 0 kts 227°
2026-04-24 19:05 51.88210 0.22624 334 ft 1 kts 227°
2026-04-24 19:05 51.88196 0.22608 333 ft 3 kts 214°
2026-04-24 19:06 51.88172 0.22582 338 ft 7 kts 213°
2026-04-24 19:06 51.88108 0.22502 340 ft 11 kts 223°
2026-04-24 19:06 51.88056 0.22423 341 ft 10 kts 223°
2026-04-24 19:06 51.87962 0.22281 337 ft 26 kts 223°
2026-04-24 19:07 51.87813 0.22057 332 ft 30 kts 222°
2026-04-24 19:07 51.87684 0.21905 333 ft 12 kts 177°
2026-04-24 19:07 51.87640 0.21925 330 ft 0 kts 164°
2026-04-24 19:08 51.87628 0.21930 330 ft 7 kts 165°
2026-04-24 19:08 51.87574 0.21957 330 ft 8 kts 156°
2026-04-24 19:09 51.87545 0.22027 332 ft 8 kts 88°
2026-04-24 19:09 51.87576 0.22089 331 ft 6 kts 43°
2026-04-24 19:09 51.87696 0.22275 332 ft 53 kts 44°
2026-04-24 19:09 51.88117 0.22905 337 ft 115 kts 43°
2026-04-24 19:10 51.88863 0.24026 361 ft 171 kts 46°
2026-04-24 19:10 51.89778 0.25374 781 ft 182 kts 45°
2026-04-24 19:10 51.90772 0.26804 1182 ft 197 kts 44°
2026-04-24 19:10 51.91812 0.28314 1721 ft 202 kts 42°
2026-04-24 19:11 51.93006 0.29569 2211 ft 212 kts 18°
2026-04-24 19:11 51.94547 0.29445 2597 ft 242 kts 338°
2026-04-24 19:11 51.95906 0.27680 3292 ft 259 kts 313°
2026-04-24 19:11 51.96940 0.25212 4113 ft 270 kts 293°
2026-04-24 19:12 51.97412 0.22248 5089 ft 273 kts 279°
2026-04-24 19:12 51.97690 0.19197 6161 ft 272 kts 278°
2026-04-24 19:12 51.97963 0.16166 7204 ft 272 kts 278°
2026-04-24 19:12 51.98261 0.13124 8166 ft 275 kts 279°
2026-04-24 19:13 51.98469 0.11095 8799 ft 276 kts 279°
2026-04-24 19:13 51.98872 0.06958 10058 ft 280 kts 274°
2026-04-24 19:13 51.98838 0.03746 10558 ft 299 kts 265°
2026-04-24 19:13 51.98597 0.00269 10900 ft 321 kts 263°
2026-04-24 19:14 51.98299 -0.03445 11233 ft 343 kts 262°
2026-04-24 19:14 51.97982 -0.07399 11656 ft 360 kts 262°
2026-04-24 19:14 51.97657 -0.11489 12346 ft 369 kts 262°
2026-04-24 19:14 51.97331 -0.15649 13098 ft 374 kts 262°
2026-04-24 19:15 51.97004 -0.19869 13855 ft 379 kts 262°
2026-04-24 19:15 51.96673 -0.24143 14586 ft 383 kts 262°
2026-04-24 19:15 51.96340 -0.28446 15316 ft 386 kts 262°
2026-04-24 19:15 51.96006 -0.32735 16028 ft 389 kts 262°
2026-04-24 19:16 51.95316 -0.41548 17440 ft 396 kts 262°
2026-04-24 19:16 51.95113 -0.46007 18029 ft 398 kts 270°
2026-04-24 19:16 51.95417 -0.50469 18246 ft 400 kts 282°
2026-04-24 19:17 51.96386 -0.54710 18265 ft 403 kts 297°
2026-04-24 19:17 51.98047 -0.58370 18257 ft 405 kts 314°
2026-04-24 19:17 52.00223 -0.61290 18260 ft 407 kts 323°
2026-04-24 19:17 52.02556 -0.63823 18254 ft 408 kts 327°
2026-04-24 19:18 52.04996 -0.66197 18265 ft 408 kts 329°
2026-04-24 19:18 52.07462 -0.68497 18265 ft 410 kts 330°
2026-04-24 19:18 52.09947 -0.70806 18266 ft 411 kts 330°
2026-04-24 19:18 52.12429 -0.73147 18266 ft 411 kts 329°
2026-04-24 19:19 52.14895 -0.75514 18263 ft 412 kts 329°
2026-04-24 19:19 52.17358 -0.77913 18260 ft 412 kts 328°
2026-04-24 19:19 52.19813 -0.80330 18261 ft 411 kts 328°
2026-04-24 19:19 52.22262 -0.82755 18260 ft 411 kts 328°
2026-04-24 19:20 52.24705 -0.85180 18250 ft 411 kts 328°
2026-04-24 19:20 52.27147 -0.87608 18251 ft 411 kts 328°
2026-04-24 19:20 52.29593 -0.90042 18253 ft 412 kts 328°
2026-04-24 19:20 52.32043 -0.92483 18256 ft 412 kts 328°
2026-04-24 19:21 52.34487 -0.94919 18257 ft 412 kts 328°
2026-04-24 19:21 52.36902 -0.97328 18256 ft 411 kts 328°
2026-04-24 19:21 52.39347 -0.99770 18264 ft 412 kts 328°
2026-04-24 19:21 52.41802 -1.02226 18260 ft 412 kts 329°
2026-04-24 19:22 52.43427 -1.03853 18251 ft 413 kts 329°
2026-04-24 19:22 52.46708 -1.07141 18241 ft 413 kts 329°
2026-04-24 19:22 52.49158 -1.09600 18240 ft 412 kts 329°
2026-04-24 19:22 52.51602 -1.12057 18233 ft 412 kts 329°
2026-04-24 19:23 52.54049 -1.14520 18225 ft 412 kts 329°
2026-04-24 19:23 52.56459 -1.16949 18224 ft 411 kts 329°
2026-04-24 19:23 52.58912 -1.19423 18218 ft 411 kts 329°
2026-04-24 19:23 52.61360 -1.21896 18215 ft 411 kts 328°
2026-04-24 19:24 52.63766 -1.24329 18211 ft 411 kts 328°
2026-04-24 19:24 52.66210 -1.26804 18211 ft 411 kts 328°
2026-04-24 19:24 52.68652 -1.29279 18210 ft 412 kts 329°
2026-04-24 19:24 52.71094 -1.31759 18210 ft 412 kts 328°
2026-04-24 19:25 52.73535 -1.34242 18264 ft 412 kts 328°
2026-04-24 19:25 52.75974 -1.36729 18265 ft 412 kts 328°
2026-04-24 19:25 52.78374 -1.39178 18265 ft 411 kts 328°
2026-04-24 19:25 52.80807 -1.41664 18265 ft 410 kts 328°
2026-04-24 19:26 52.83231 -1.44145 18265 ft 410 kts 328°
2026-04-24 19:26 52.85656 -1.46630 18267 ft 410 kts 328°
2026-04-24 19:26 52.88079 -1.49115 18265 ft 410 kts 328°
2026-04-24 19:26 52.90511 -1.51614 18265 ft 410 kts 328°
2026-04-24 19:27 52.92933 -1.54107 18266 ft 411 kts 328°
2026-04-24 19:27 52.95361 -1.56608 18266 ft 412 kts 329°
2026-04-24 19:27 52.97803 -1.59127 18268 ft 412 kts 328°
2026-04-24 19:27 53.00239 -1.61642 18263 ft 412 kts 328°
2026-04-24 19:28 53.02644 -1.64128 18268 ft 411 kts 328°
2026-04-24 19:28 53.05132 -1.66449 18273 ft 410 kts 335°
2026-04-24 19:28 53.07739 -1.68366 18271 ft 410 kts 337°
2026-04-24 19:28 53.10391 -1.70147 18271 ft 410 kts 339°
2026-04-24 19:29 53.15747 -1.73489 18274 ft 410 kts 340°
2026-04-24 19:29 53.18430 -1.75124 18269 ft 411 kts 340°
2026-04-24 19:29 53.21115 -1.76764 18269 ft 411 kts 340°
2026-04-24 19:30 53.23797 -1.78413 18274 ft 411 kts 340°
2026-04-24 19:30 53.26477 -1.80071 18271 ft 410 kts 339°
2026-04-24 19:30 53.29146 -1.81732 18273 ft 409 kts 339°
2026-04-24 19:30 53.31765 -1.83368 17960 ft 404 kts 339°
2026-04-24 19:31 53.34410 -1.85025 17011 ft 405 kts 339°
2026-04-24 19:31 53.37057 -1.86686 16166 ft 404 kts 339°
2026-04-24 19:31 53.39676 -1.88332 15428 ft 398 kts 339°
2026-04-24 19:31 53.42210 -1.89925 14360 ft 389 kts 339°
2026-04-24 19:32 53.44731 -1.91513 13083 ft 384 kts 339°
2026-04-24 19:32 53.47211 -1.93076 11853 ft 377 kts 339°
2026-04-24 19:32 53.49650 -1.94616 10728 ft 369 kts 339°
2026-04-24 19:32 53.51990 -1.96094 10162 ft 347 kts 339°
2026-04-24 19:33 53.54157 -1.97463 9756 ft 323 kts 339°
2026-04-24 19:33 53.56191 -1.98749 9377 ft 302 kts 339°
2026-04-24 19:33 53.58104 -1.99961 8946 ft 287 kts 339°
2026-04-24 19:33 53.59944 -2.01130 8461 ft 279 kts 339°
2026-04-24 19:34 53.61751 -2.02277 8271 ft 276 kts 339°
2026-04-24 19:34 53.63548 -2.03420 8092 ft 276 kts 339°
2026-04-24 19:34 53.65363 -2.04575 7310 ft 282 kts 339°
2026-04-24 19:34 53.67229 -2.05764 6178 ft 293 kts 339°
2026-04-24 19:35 53.69170 -2.07002 4946 ft 303 kts 340°
2026-04-24 19:35 53.71172 -2.08306 3670 ft 311 kts 336°
2026-04-24 19:35 53.72941 -2.10330 2808 ft 304 kts 314°
2026-04-24 19:35 53.74070 -2.13218 2250 ft 289 kts 288°
2026-04-24 19:36 53.74445 -2.16411 2042 ft 273 kts 275°
2026-04-24 19:36 53.74579 -2.19524 2007 ft 258 kts 272°
2026-04-24 19:36 53.74663 -2.22495 2011 ft 248 kts 271°
2026-04-24 19:36 53.74734 -2.25370 2017 ft 242 kts 271°
2026-04-24 19:37 53.74757 -2.28237 2014 ft 247 kts 259°
2026-04-24 19:37 53.74266 -2.30960 2014 ft 245 kts 254°
2026-04-24 19:37 53.74012 -2.33817 2017 ft 246 kts 266°
2026-04-24 19:37 53.74050 -2.36706 2017 ft 247 kts 273°
2026-04-24 19:38 53.74184 -2.39596 2018 ft 247 kts 274°
2026-04-24 19:38 53.74325 -2.42490 2016 ft 247 kts 274°
2026-04-24 19:38 53.74469 -2.45384 2015 ft 246 kts 274°
2026-04-24 19:38 53.74613 -2.48290 2020 ft 249 kts 274°
2026-04-24 19:39 53.74758 -2.51252 2031 ft 256 kts 273°
2026-04-24 19:39 53.74899 -2.54233 2026 ft 253 kts 273°
2026-04-24 19:39 53.75037 -2.57224 2031 ft 257 kts 273°
2026-04-24 19:39 53.75173 -2.60218 2030 ft 259 kts 273°
2026-04-24 19:40 53.75312 -2.63267 2033 ft 259 kts 274°
2026-04-24 19:40 53.75453 -2.66303 2029 ft 259 kts 274°
2026-04-24 19:40 53.75595 -2.69340 2031 ft 258 kts 274°
2026-04-24 19:40 53.75733 -2.72277 2007 ft 243 kts 273°
2026-04-24 19:41 53.75861 -2.74991 2032 ft 222 kts 273°
2026-04-24 19:41 53.75975 -2.77442 2031 ft 194 kts 273°
2026-04-24 19:41 53.76074 -2.79578 1984 ft 174 kts 273°
2026-04-24 19:41 53.76168 -2.81603 1966 ft 172 kts 273°
2026-04-24 19:42 53.76262 -2.83615 1967 ft 171 kts 273°
2026-04-24 19:42 53.76356 -2.85626 1900 ft 171 kts 273°
2026-04-24 19:42 53.76447 -2.87582 1710 ft 161 kts 273°
2026-04-24 19:42 53.76531 -2.89384 1451 ft 149 kts 273°
2026-04-24 19:43 53.76610 -2.91086 1252 ft 144 kts 274°
2026-04-24 19:43 53.76685 -2.92767 1045 ft 143 kts 274°
2026-04-24 19:43 53.76757 -2.94450 870 ft 143 kts 274°
2026-04-24 19:43 53.76839 -2.96127 678 ft 141 kts 277°
2026-04-24 19:44 53.76918 -2.97774 478 ft 142 kts 275°
2026-04-24 19:44 53.76997 -2.99428 287 ft 141 kts 276°
2026-04-24 19:44 53.77071 -3.01083 115 ft 142 kts 275°
2026-04-24 19:44 53.77148 -3.02649 38 ft 117 kts 274°
2026-04-24 19:45 53.77189 -3.03524 45 ft 17 kts 274°
2026-04-24 19:45 53.77209 -3.03613 44 ft 8 kts 327°
2026-04-24 19:45 53.77259 -3.03617 42 ft 8 kts
2026-04-24 19:45 53.77342 -3.03595 42 ft 21 kts 11°
2026-04-24 19:46 53.77482 -3.03558 42 ft 20 kts
2026-04-24 19:46 53.77616 -3.03561 42 ft 19 kts 343°
2026-04-24 19:46 53.77744 -3.03623 42 ft 19 kts 343°
2026-04-24 19:46 53.77809 -3.03754 42 ft 11 kts 251°
2026-04-24 19:47 53.77787 -3.03876 42 ft 11 kts 255°
2026-04-24 19:47 53.77806 -3.03966 42 ft 1 kts 349°
2026-04-24 19:47 53.77810 -3.03944 41 ft 1 kts 112°
2026-04-24 19:47 53.77809 -3.03941 41 ft 1 kts 114°
2026-04-24 19:48 53.77817 -3.03959 40 ft 2 kts 160°
2026-04-24 19:48 53.77818 -3.03960 40 ft 0 kts 165°